When you browse on this site, cookies collect data to enhance your experience and personalize the content and advertising you see.
Visit our Privacy Policy to learn more. By continuing to use the site, you agree to this use of cookies and data.
  • în România
  • Lista ţărilor
  • Pe 7 zile
  • Temperatura apei
  • Hartă satelitară
  • Meteo pe hartă
  • Widget-uri
  • user-avatar
    Intrare

    Meteo pe oră la Cumaná

    Astăzi, 22 Martie, Vineri

    Timp Temperatura Precipitaţii Vânt Presiune Umiditate
    00:00 +26°C° 0 mm 5 m/s 752 mmHg 86%
    01:00 +26°C° 0 mm 5 m/s 752 mmHg 86%
    02:00 +26°C° 0 mm 5 m/s 752 mmHg 86%
    03:00 +26°C° 0 mm 5 m/s 752 mmHg 87%
    04:00 +26°C° 0 mm 5 m/s 752 mmHg 87%
    05:00 +26°C° 0 mm 5 m/s 752 mmHg 88%
    06:00 +27°C° 0 mm 4 m/s 752 mmHg 81%
    07:00 +28°C° 0 mm 4 m/s 752 mmHg 73%
    08:00 +30°C° 0 mm 4 m/s 753 mmHg 66%
    09:00 +33°C° 0 mm 4 m/s 753 mmHg 56%
    10:00 +35°C° 0 mm 4 m/s 753 mmHg 46%
    11:00 +38°C° 0 mm 4 m/s 753 mmHg 37%
    12:00 +38°C° 0 mm 4 m/s 752 mmHg 37%
    13:00 +39°C° 0 mm 5 m/s 752 mmHg 37%
    14:00 +39°C° 0 mm 5 m/s 751 mmHg 37%
    15:00 +36°C° 0 mm 5 m/s 750 mmHg 43%
    16:00 +35°C° 0 mm 5 m/s 750 mmHg 49%
    17:00 +33°C° 0 mm 6 m/s 749 mmHg 55%
    18:00 +32°C° 0 mm 6 m/s 750 mmHg 63%
    19:00 +29°C° 0 mm 6 m/s 750 mmHg 72%
    20:00 +28°C° 0 mm 6 m/s 751 mmHg 80%
    21:00 +27°C° 0 mm 6 m/s 752 mmHg 79%
    22:00 +27°C° 0 mm 6 m/s 752 mmHg 78%
    23:00 +27°C° 0 mm 6 m/s 753 mmHg 77%

    Mâine, 23 Martie, Sâmbătă

    Timp Temperatura Precipitaţii Vânt Presiune Umiditate
    00:00 +27°C° 0 mm 6 m/s 752 mmHg 79%
    01:00 +26°C° 0 mm 5 m/s 752 mmHg 81%
    02:00 +26°C° 0 mm 5 m/s 752 mmHg 84%
    03:00 +26°C° 0 mm 5 m/s 752 mmHg 83%
    04:00 +26°C° 0 mm 5 m/s 752 mmHg 83%
    05:00 +26°C° 0 mm 5 m/s 752 mmHg 82%
    06:00 +27°C° 0 mm 4 m/s 752 mmHg 76%
    07:00 +29°C° 0 mm 4 m/s 753 mmHg 69%
    08:00 +30°C° 0 mm 4 m/s 753 mmHg 62%
    09:00 +33°C° 0 mm 4 m/s 754 mmHg 55%
    10:00 +35°C° 0 mm 4 m/s 754 mmHg 47%
    11:00 +38°C° 0 mm 4 m/s 754 mmHg 39%
    12:00 +38°C° 0 mm 4 m/s 753 mmHg 40%
    13:00 +38°C° 0 mm 4 m/s 752 mmHg 41%
    14:00 +37°C° 0 mm 5 m/s 751 mmHg 41%
    15:00 +36°C° 0 mm 5 m/s 751 mmHg 46%
    16:00 +35°C° 0 mm 5 m/s 750 mmHg 50%
    17:00 +34°C° 0 mm 6 m/s 750 mmHg 54%
    18:00 +32°C° 0 mm 6 m/s 750 mmHg 62%
    19:00 +30°C° 0 mm 6 m/s 751 mmHg 70%
    20:00 +28°C° 0 mm 6 m/s 752 mmHg 78%
    21:00 +28°C° 0 mm 6 m/s 752 mmHg 77%
    22:00 +27°C° 0 mm 6 m/s 752 mmHg 77%
    23:00 +27°C° 0 mm 5 m/s 753 mmHg 77%

    Poimâine, 24 Martie, Duminică

    Timp Temperatura Precipitaţii Vânt Presiune Umiditate
    00:00 +27°C° 0 mm 5 m/s 753 mmHg 78%
    01:00 +27°C° 0 mm 5 m/s 752 mmHg 78%
    02:00 +27°C° 0 mm 5 m/s 752 mmHg 79%
    03:00 +26°C° 0 mm 5 m/s 752 mmHg 79%
    04:00 +26°C° 0 mm 5 m/s 752 mmHg 80%
    05:00 +26°C° 0 mm 5 m/s 752 mmHg 80%
    06:00 +27°C° 0 mm 5 m/s 752 mmHg 76%
    07:00 +28°C° 0 mm 5 m/s 753 mmHg 71%
    08:00 +29°C° 0 mm 6 m/s 753 mmHg 66%
    09:00 +32°C° 0 mm 6 m/s 754 mmHg 59%
    10:00 +34°C° 0 mm 6 m/s 754 mmHg 51%
    11:00 +36°C° 0 mm 6 m/s 754 mmHg 43%
    12:00 +38°C° 0 mm 6 m/s 753 mmHg 42%
    13:00 +38°C° 0 mm 6 m/s 752 mmHg 41%
    14:00 +38°C° 0 mm 7 m/s 751 mmHg 39%
    15:00 +36°C° 0 mm 7 m/s 751 mmHg 43%
    16:00 +35°C° 0 mm 7 m/s 750 mmHg 46%
    17:00 +34°C° 0 mm 7 m/s 750 mmHg 50%
    18:00 +32°C° 0 mm 7 m/s 750 mmHg 59%
    19:00 +29°C° 0 mm 6 m/s 750 mmHg 69%
    20:00 +27°C° 0 mm 6 m/s 751 mmHg 79%
    21:00 +27°C° 0 mm 6 m/s 751 mmHg 80%
    22:00 +27°C° 0 mm 6 m/s 751 mmHg 82%
    23:00 +26°C° 0 mm 5 m/s 752 mmHg 84%

    25 Martie, Luni

    Timp Temperatura Precipitaţii Vânt Presiune Umiditate
    00:00 +26°C° 0 mm 5 m/s 751 mmHg 85%
    01:00 +26°C° 0 mm 5 m/s 751 mmHg 86%
    02:00 +26°C° 0 mm 5 m/s 750 mmHg 87%
    03:00 +26°C° 0 mm 5 m/s 750 mmHg 87%
    04:00 +26°C° 0 mm 5 m/s 750 mmHg 87%
    05:00 +26°C° 0 mm 5 m/s 751 mmHg 87%
    06:00 +27°C° 0 mm 5 m/s 751 mmHg 80%
    07:00 +28°C° 0 mm 5 m/s 752 mmHg 74%
    08:00 +29°C° 0 mm 5 m/s 752 mmHg 68%
    09:00 +32°C° 0 mm 5 m/s 752 mmHg 63%
    10:00 +33°C° 0 mm 5 m/s 752 mmHg 58%
    11:00 +35°C° 0 mm 5 m/s 752 mmHg 53%
    12:00 +34°C° 0 mm 4 m/s 751 mmHg 54%
    13:00 +34°C° 0 mm 4 m/s 751 mmHg 55%
    14:00 +34°C° 0 mm 4 m/s 750 mmHg 57%
    15:00 +33°C° 0 mm 5 m/s 749 mmHg 57%
    16:00 +33°C° 0 mm 5 m/s 749 mmHg 57%
    17:00 +33°C° 0 mm 5 m/s 748 mmHg 57%
    18:00 +32°C° 0 mm 5 m/s 749 mmHg 64%
    19:00 +29°C° 0 mm 5 m/s 749 mmHg 72%
    20:00 +28°C° 0 mm 5 m/s 750 mmHg 80%
    21:00 +27°C° 0 mm 5 m/s 750 mmHg 80%
    22:00 +26°C° 0 mm 5 m/s 751 mmHg 81%
    23:00 +26°C° 0 mm 4 m/s 751 mmHg 81%

    26 Martie, Marţi

    Timp Temperatura Precipitaţii Vânt Presiune Umiditate
    00:00 +26°C° 0 mm 4 m/s 751 mmHg 81%
    01:00 +25°C° 0 mm 4 m/s 750 mmHg 82%
    02:00 +25°C° 0 mm 4 m/s 750 mmHg 82%
    03:00 +25°C° 0 mm 5 m/s 750 mmHg 83%
    04:00 +25°C° 0 mm 5 m/s 750 mmHg 83%
    05:00 +23°C° 0 mm 5 m/s 750 mmHg 84%
    06:00 +26°C° 0 mm 5 m/s 751 mmHg 77%
    07:00 +27°C° 0 mm 4 m/s 751 mmHg 70%
    08:00 +29°C° 0 mm 4 m/s 752 mmHg 63%
    09:00 +33°C° 0 mm 4 m/s 752 mmHg 54%
    10:00 +35°C° 0 mm 4 m/s 752 mmHg 45%
    11:00 +38°C° 0 mm 4 m/s 752 mmHg 36%
    12:00 +37°C° 0 mm 4 m/s 751 mmHg 39%
    13:00 +36°C° 0 mm 4 m/s 750 mmHg 42%
    14:00 +35°C° 0 mm 5 m/s 749 mmHg 45%
    15:00 +35°C° 0 mm 5 m/s 749 mmHg 48%
    16:00 +34°C° 0 mm 5 m/s 749 mmHg 51%
    17:00 +34°C° 0 mm 5 m/s 748 mmHg 55%
    18:00 +32°C° 0 mm 5 m/s 749 mmHg 63%
    19:00 +30°C° 0 mm 5 m/s 749 mmHg 71%
    20:00 +28°C° 0 mm 5 m/s 750 mmHg 79%
    21:00 +28°C° 0 mm 5 m/s 750 mmHg 78%
    22:00 +28°C° 0 mm 5 m/s 751 mmHg 76%
    23:00 +28°C° 0 mm 5 m/s 751 mmHg 75%

    27 Martie, Miercuri

    Timp Temperatura Precipitaţii Vânt Presiune Umiditate
    00:00 +27°C° 0 mm 5 m/s 751 mmHg 76%
    01:00 +27°C° 0 mm 5 m/s 750 mmHg 77%
    02:00 +27°C° 0 mm 5 m/s 750 mmHg 78%
    03:00 +27°C° 0 mm 5 m/s 750 mmHg 79%
    04:00 +27°C° 0 mm 5 m/s 750 mmHg 79%
    05:00 +27°C° 0 mm 5 m/s 751 mmHg 80%
    06:00 +28°C° 0 mm 5 m/s 751 mmHg 74%
    07:00 +29°C° 0 mm 5 m/s 752 mmHg 68%
    08:00 +32°C° 0 mm 4 m/s 752 mmHg 63%
    09:00 +34°C° 0 mm 4 m/s 752 mmHg 55%
    10:00 +36°C° 0 mm 4 m/s 752 mmHg 47%
    11:00 +38°C° 0 mm 3 m/s 752 mmHg 39%
    12:00 +38°C° 0 mm 4 m/s 751 mmHg 38%
    13:00 +38°C° 0 mm 4 m/s 750 mmHg 38%
    14:00 +38°C° 0 mm 4 m/s 750 mmHg 37%
    15:00 +37°C° 0 mm 4 m/s 749 mmHg 43%
    16:00 +35°C° 0 mm 5 m/s 749 mmHg 49%
    17:00 +34°C° 0 mm 5 m/s 749 mmHg 55%
    18:00 +32°C° 0 mm 5 m/s 749 mmHg 61%
    19:00 +30°C° 0 mm 5 m/s 750 mmHg 68%
    20:00 +29°C° 0 mm 5 m/s 750 mmHg 75%
    21:00 +29°C° 0 mm 5 m/s 751 mmHg 74%
    22:00 +29°C° 0 mm 5 m/s 751 mmHg 73%
    23:00 +28°C° 0 mm 5 m/s 751 mmHg 72%
    Arată mai mult